Regional Weather Roundup
Issued by NWS

Home | Current Version | Previous Version | Text Only | Print | Product List | Glossary Off
Versions: 1 2 3 4 5 6 7 8 9 10 11 12 13 14 15 16 17 18 19 20 21 22 23 24 25 26 27 28 29 30 31 32 33 34 35 36 37 38 39 40 41 42 43 44 45 46 47 48 49 50

000
ASUS43 KMPX 292210
RWRMN
WEATHER ROUNDUP FOR MINNESOTA
NATIONAL WEATHER SERVICE TWIN CITIES/CHANHASSEN MN
500 PM CDT WED OCT 29 2014


NOTE: "FAIR" INDICATES FEW OR NO CLOUDS BELOW 12,000 FEET WITH NO
SIGNIFICANT WEATHER AND/OR OBSTRUCTIONS TO VISIBILITY. N/A MEANS
CURRENT SKY AND/OR WEATHER CONDITIONS ARE NOT AVAILABLE.

MNZ060>063-068>070-292300-
   Twin Cities Metro

CITY           SKY/WX    TMP DP  RH WIND       PRES   REMARKS
TWIN CITIES    PTCLDY    42  32  67 SW3       30.10F
ST PAUL        CLOUDY    41  31  67 W3        30.11F
CRYSTAL        CLOUDY    43  32  65 S5        30.10F
BLAINE         CLOUDY    43  34  70 SW6       30.09F
LAKEVILLE      PTCLDY    41  30  65 SW3       30.09F
EDEN PRAIRIE   PTCLDY    43  32  65 SW3       30.09F
SOUTH ST PAUL  PTCLDY    41  31  67 CALM      30.10F
LAKE ELMO      CLOUDY    41  32  70 W7        30.11F
$$
MNZ001>005-007-008-013>017-022>024-027-028-292300-
   Northwest Minnesota

CITY           SKY/WX    TMP DP  RH WIND       PRES   REMARKS
BEMIDJI        CLOUDY    35  30  83 CALM      30.04F
HALLOCK        MOCLDY    39  28  65 S9        30.02F
ROSEAU         CLOUDY    37  32  81 SW6       30.03F
WARROAD        CLOUDY    37  34  87 W7        30.04S
THIEF RVR FALL CLOUDY    37  28  70 S6        30.03F
CROOKSTON      PTSUNNY   39  28  65 SW9       30.04F
FOSSTON        CLOUDY    36  30  80 S7        30.05S
DETROIT LAKES  PTSUNNY   37  30  75 S5        30.05F
MOORHEAD       PTSUNNY   43  30  61 S8        30.05F
PARK RAPIDS    CLOUDY    36  30  79 CALM      30.04F
MAHNOMEN       CLOUDY    37  29  75 S6        30.05S
$$
MNZ006-009>011-018-025>026-292300-
   North Central Minnesota

CITY           SKY/WX    TMP DP  RH WIND       PRES   REMARKS
BAUDETTE       CLOUDY    37  33  85 SW6       30.03F
FLAG ISLAND    CLOUDY    37  34  87 W3        30.02F
INTL FALLS     CLOUDY    37  35  92 W5        30.03F FOG
WASKISH        CLOUDY    37  34  87 CALM      30.04F
BIG FORK       CLOUDY    37  34  87 W3        30.05S
LONGVILLE      CLOUDY    37  32  81 SW3       30.05F
GRAND RAPIDS   CLOUDY    36  32  87 CALM      30.06S
CRANE LAKE     CLOUDY    37  36  93 CALM      30.05F
ORR            CLOUDY    37  34  87 W6        30.02S FOG
COOK           CLOUDY    37  36  93 SW5       30.04F FOG
WALKER         CLOUDY    35  30  82 SW6       30.05F WCI  30
$$
MNZ012-019>021-037-292300-
   Northeast Minnesota

CITY           SKY/WX    TMP DP  RH WIND       PRES   REMARKS
DULUTH         CLOUDY    40  32  73 W8        30.05S
ELY            CLOUDY    37  34  87 CALM      30.03F
HIBBING        CLOUDY    39  33  79 W5        30.05F
EVELETH        CLOUDY    39  34  81 SW5       30.05F
DULUTH HARBOR  CLOUDY    45  36  70 W9        30.08S
TWO HARBORS    CLOUDY    45 N/A N/A W7        30.04R
SILVER BAY     MOCLDY    43  34  70 CALM      30.03S
GRAND MARAIS     N/A     44  34  67 VRB5      30.03F
G MARAIS ARPRT CLOUDY    37  28  70 W3        30.00F
$$
MNZ029>031-032-039>041-046>048-054>057-064-292300-
   West Central Minnesota

CITY           SKY/WX    TMP DP  RH WIND       PRES   REMARKS
FERGUS FALLS   PTSUNNY   39  27  60 S7        30.07F
WHEATON        PTSUNNY   43  30  61 SE8       30.08S
MORRIS         PTSUNNY   39  32  75 S5        30.07R
ALEXANDRIA     MOSUNNY   38  30  73 S6        30.07F
ELBOW LAKE     PTSUNNY   38  31  74 S9        30.06S
WADENA         CLOUDY    36  28  75 CALM      30.05F
GLENWOOD       SUNNY     37  30  75 S5        30.07F
APPLETON       MOSUNNY   45  32  61 SE6       30.07S
BENSON         SUNNY     41  32  70 S5        30.08F
ORTONVILLE     PTSUNNY   45  30  57 SE6       30.05F
MADISON        MOSUNNY   50  36  57 S3        30.06F
WILLMAR        FAIR      43  30  61 SW5       30.09F
$$
MNZ033>034-036-042>043-049>051-058-059-292300-
   Central Minnesota

CITY           SKY/WX    TMP DP  RH WIND       PRES   REMARKS
ST CLOUD       CLOUDY    43  32  65 SW3       30.09S
SAUK CENTRE    MOCLDY    38  31  74 S3        30.08F
PAYNESVILLE    MOSUNNY   38  31  73 S5        30.09S
AITKIN         CLOUDY    39  34  81 CALM      30.06F
PINE RIVER     CLOUDY    37  30  75 CALM      30.09F
BRAINERD       CLOUDY    37  31  78 W6        30.07F
STAPLES        CLOUDY    36  30  80 W5        30.07F
LONG PRAIRIE   PTSUNNY   36  30  80 SW3       30.07F
LITTLE FALLS   CLOUDY    37  30  75 W3        30.08S
LITCHFIELD     SUNNY     43  34  70 SW6       30.10S
BUFFALO        PTCLDY    40  31  69 SW3       30.11S
MAPLE LAKE     MOCLDY    43  34  70 S3        30.10F
$$
MNZ037-044-045-052-053-292300-
   East Central Minnesota

CITY           SKY/WX    TMP DP  RH WIND       PRES   REMARKS
PRINCETON      CLOUDY    41  32  70 CALM      30.09F
MORA           CLOUDY    36  30  80 W3        30.11S
CAMBRIDGE      CLOUDY    43  30  61 SW6       30.08F
RUSH CITY      CLOUDY    39  32  75 SW6       30.10F
MOOSE LAKE     CLOUDY    39  32  75 SW7       30.06S
HINCKLEY       CLOUDY    41  34  75 SW7       30.09S
CLOQUET        CLOUDY    39  32  75 SW8       30.06S
MCGREGOR       CLOUDY    37  32  81 CALM      30.07F
$$
MNZ071>073-080-081-089-090-097-098-292300-
   Southwest Minnesota

CITY           SKY/WX    TMP DP  RH WIND       PRES   REMARKS
MONTEVIDEO     MOSUNNY   45  34  65 S5        30.08F
GRANITE FALLS  SUNNY     45  32  59 SE3       30.09F
CANBY          MOSUNNY   48  33  55 SW5       30.06F
MARSHALL       SUNNY     50  30  46 SW9       30.06S
REDWOOD FALLS  SUNNY     47  30  51 S6        30.08F
OLIVIA         SUNNY     43  32  65 SW5       30.08S
PIPESTONE      SUNNY     48  28  46 SW10      30.05F
WINDOM         SUNNY     50  28  43 CALM      30.07F
WORTHINGTON    SUNNY     48  28  46 S8        30.08S
JACKSON        SUNNY     50  28  43 SW5       30.08F
TRACY          SUNNY     50  31  48 S8        30.07S
SLAYTON        SUNNY     49  28  42 SW8       30.06F
$$
MNZ065>067-074>077-082>085-091>093-292300-
   South Central Minnesota

CITY           SKY/WX    TMP DP  RH WIND       PRES   REMARKS
MANKATO        SUNNY     45  28  53 S5        30.10F
NEW ULM        SUNNY     46  34  61 SW5       30.09
ST JAMES       SUNNY     50  30  46 S5        30.10F
FAIRMONT       SUNNY     50  28  43 SW5       30.10S
GLENCOE        SUNNY     43  33  69 CALM      30.09F
FARIBAULT      SUNNY     43  32  65 CALM      30.11F
OWATONNA       SUNNY     43  30  61 W3        30.11F
WASECA         SUNNY     43  28  56 S6        30.12F
ALBERT LEA     SUNNY     45  32  61 CALM      30.11S
$$
MNZ078>079-086>088-094>096-292300-
   Southeast Minnesota

CITY           SKY/WX    TMP DP  RH WIND       PRES   REMARKS
ROCHESTER      CLEAR     43  31  62 W7        30.12S
RED WING       MOCLDY    46  30  53 NW6       30.10F
STANTON        CLEAR     44  32  63 W6        30.10F
DODGE CENTER   CLEAR     43  34  70 W3        30.11F
WINONA         PTCLDY    46  32  57 W5        30.12F
AUSTIN         SUNNY     45  32  61 W6        30.11S
PRESTON        CLEAR     43  31  64 W5        30.12S
$$
ABBREVIATIONS USED IN REMARKS
   TC - TEMPERATURES IN CELSIUS
  WCI - WIND CHILL INDEX
   HX - HEAT INDEX
  VSB - VISIBILITY
$$



USA.gov is the U.S. government's official web portal to all federal, state and local government web resources and services.